Hourly Data Report for March 25, 2006

TORONTO CITY
ONTARIO

43°40'00.000" N
79°24'00.000" W
112.50 m
6158355
71508
XTO

Download Data

Hourly Data (March 2006)
Hourly Data Report for March 25, 2006
TIME
LST
Temp Definition
°C
Dew Point Definition
°C
Rel Hum Definition
%
Precip. Amount Definition
mm

Wind Dir Definition
10's deg

Wind Spd Definition
km/h
Visibility Definition
km
Stn Press Definition
kPa
Hmdx Definition


Wind Chill Definition


Weather Definition


00:00 3.3 -0.6 76   LegendMM LegendMM   100.25     LegendNANA
01:00 2.9 0.0 81   LegendMM LegendMM   100.23     LegendNANA
02:00 2.9 -0.5 78   LegendMM LegendMM   100.18     LegendNANA
03:00 2.7 -0.3 81   LegendMM LegendMM   100.14     LegendNANA
04:00 2.5 -0.4 81   LegendMM LegendMM   100.13     LegendNANA
05:00 2.3 0.4 87   LegendMM LegendMM   100.14     LegendNANA
06:00 2.3 0.1 85   LegendMM LegendMM   100.17     LegendNANA
07:00 2.3 0.4 87   LegendMM LegendMM   100.24     LegendNANA
08:00 2.1 1.0 92   LegendMM LegendMM   100.26     LegendNANA
09:00 1.7 0.8 94   LegendMM LegendMM   100.26     LegendNANA
10:00 2.1 1.3 94   LegendMM LegendMM   100.27     LegendNANA
11:00 2.5 1.4 92   LegendMM LegendMM   100.29     LegendNANA
12:00 3.0 2.0 93   LegendMM LegendMM   100.29     LegendNANA
13:00 3.1 2.0 92   LegendMM LegendMM   100.27     LegendNANA
14:00 3.1 1.7 91   LegendMM LegendMM   100.24     LegendNANA
15:00 3.4 1.1 85   LegendMM LegendMM   100.24     LegendNANA
16:00 3.3 0.6 82   LegendMM LegendMM   100.24     LegendNANA
17:00 4.4 0.6 76   LegendMM LegendMM   100.23     LegendNANA
18:00 4.1 0.5 77   LegendMM LegendMM   100.27     LegendNANA
19:00 3.2 1.6 89   LegendMM LegendMM   100.30     LegendNANA
20:00 3.4 2.4 93   LegendMM LegendMM   100.33     LegendNANA
21:00 3.5 2.8 95   LegendMM LegendMM   100.36     LegendNANA
22:00 4.3 3.4 94   LegendMM LegendMM   100.37     LegendNANA
23:00 3.9 2.6 91   LegendMM LegendMM   100.37     LegendNANA

Notes on Data Quality.

Legend

  • E = Estimated
  • M = Missing
  • NA = Not Available*
  • [empty] = Indicates an unobserved value
Date modified: